This is the latest recevied weather packets stored in our database for station/object CE1RLP-34. If no packets are shown the sender has not sent any weather packets the latest 10 day(s).
| Time | Temp. | Humidity | Pressure | Rain* | Wind** | Luminosity | Snow |
|---|---|---|---|---|---|---|---|
| 1777974620 | 10.56° C | 11% | 1081.8 hPa | - | - | - | - |
| 1777973720 | 10° C | 11% | 1081.8 hPa | - | - | - | - |
| 1777972817 | 10° C | 11% | 1081.9 hPa | - | - | - | - |
| 1777971917 | 10° C | 11% | 1082 hPa | - | - | - | - |
| 1777971015 | 10° C | 11% | 1082.1 hPa | - | - | - | - |
| 1777970115 | 9.44° C | 12% | 1082 hPa | - | - | - | - |
| 1777969212 | 9.44° C | 12% | 1082 hPa | - | - | - | - |
| 1777968312 | 10° C | 12% | 1082.1 hPa | - | - | - | - |
| 1777967410 | 10° C | 12% | 1082.2 hPa | - | - | - | - |
| 1777966509 | 10.56° C | 13% | 1082.1 hPa | - | - | - | - |
| 1777965607 | 10.56° C | 13% | 1082.3 hPa | - | - | - | - |
| 1777964707 | 10.56° C | 13% | 1081.8 hPa | - | - | - | - |
| 1777963804 | 11.11° C | 12% | 1082.4 hPa | - | - | - | - |
| 1777962904 | 11.67° C | 13% | 1082.6 hPa | - | - | - | - |
| 1777962002 | 11.67° C | 13% | 1082.6 hPa | - | - | - | - |
| 1777960229 | 11.67° C | 13% | 1082.8 hPa | - | - | - | - |
| 1777959329 | 11.67° C | 12% | 1082.9 hPa | - | - | - | - |
| 1777958426 | 11.67° C | 12% | 1082.9 hPa | - | - | - | - |
| 1777957526 | 12.22° C | 11% | 1083.1 hPa | - | - | - | - |
| 1777956624 | 12.22° C | 12% | 1083 hPa | - | - | - | - |
| 1777955724 | 12.22° C | 12% | 1083 hPa | - | - | - | - |
| 1777954821 | 11.67° C | 13% | 1083.2 hPa | - | - | - | - |
| 1777953921 | 11.67° C | 14% | 1083.2 hPa | - | - | - | - |
| 1777953019 | 11.67° C | 13% | 1083.2 hPa | - | - | - | - |
| 1777952119 | 11.11° C | 13% | 1083.2 hPa | - | - | - | - |
* Rain since midnight (hover to see other rain measurements)
** Current wind speed in m/s (hover to see current wind gust speed)